,,,PA_Meas_PMT16A,,PR_Meas_QMR101_102,,RH_Meas_QMH101,,SR_Meas_QMS101,,TA_Meas_QMH101,,GenWind,,GenWind,
date,time,status,PA,status,PR,status,RH,status,SR,status,TA,status,DirAvg,status,SpdAvg,
2013-02-03, 00:00:04,VALID,1009.52,VALID,0,VALID,101.377,VALID,0,VALID,26.0896,VALID,80,VALID,0.6125,
2013-02-03, 00:01:04,VALID,1009.55,VALID,0,VALID,101.537,VALID,0.112112,VALID,26.0896,VALID,80,VALID,0.519922,
2013-02-03, 00:02:04,VALID,1009.53,VALID,0,VALID,101.72,VALID,0.112112,VALID,26.0896,VALID,80,VALID,0.409766,
2013-02-03, 00:03:04,VALID,1009.49,VALID,0,VALID,101.766,VALID,0.112112,VALID,26.0896,VALID,80,VALID,0.537891,
2013-02-03, 00:04:04,VALID,1009.48,VALID,0,VALID,101.423,VALID,0.112112,VALID,26.0896,VALID,82,VALID,0.454688,
2013-02-03, 00:05:04,VALID,1009.47,VALID,0,VALID,101.346,VALID,0.112112,VALID,26.0896,VALID,63,VALID,0.880469,
2013-02-03, 00:06:04,VALID,1009.46,VALID,0,VALID,101.461,VALID,0.112112,VALID,26.0896,VALID,64,VALID,0.871875,
2013-02-03, 00:07:04,VALID,1009.43,VALID,0,VALID,101.773,VALID,0.112112,VALID,26.0876,VALID,63,VALID,0.710938,
2013-02-03, 00:08:04,VALID,1009.43,VALID,0,VALID,101.613,VALID,0.112112,VALID,26.0896,VALID,69,VALID,0.785937,
2013-02-03, 00:09:04,VALID,1009.43,VALID,0,VALID,101.827,VALID,0.224224,VALID,26.1091,VALID,69,VALID,0.518359,
2013-02-03, 00:10:04,VALID,1009.44,VALID,0,VALID,101.766,VALID,0,VALID,26.0701,VALID,69,VALID,0.579297,
2013-02-03, 00:11:04,VALID,1009.45,VALID,0,VALID,101.819,VALID,0.112112,VALID,26.0701,VALID,63,VALID,0.842578,
2013-02-03, 00:12:04,VALID,1009.42,VALID,0,VALID,101.85,VALID,0.112112,VALID,26.0701,VALID,63,VALID,0.494922,
2013-02-03, 00:13:04,VALID,1009.42,VALID,0,VALID,102.063,VALID,0.112112,VALID,26.0701,VALID,62,VALID,0.515625,
2013-02-03, 00:14:04,VALID,1009.42,VALID,0,VALID,102.155,VALID,0.112112,VALID,26.0701,VALID,63,VALID,0.419531,
2013-02-03, 00:15:04,VALID,1009.42,VALID,0,VALID,102.299,VALID,0.112112,VALID,26.0701,VALID,63,VALID,0.348047,
2013-02-03, 00:16:04,VALID,1009.41,VALID,0,VALID,102.33,VALID,0.112112,VALID,26.0486,VALID,64,VALID,0.491016,
2013-02-03, 00:17:04,VALID,1009.37,VALID,0,VALID,102.231,VALID,0.112112,VALID,26.0486,VALID,64,VALID,0.163281,
2013-02-03, 00:18:04,VALID,1009.4,VALID,0,VALID,102.399,VALID,0.112112,VALID,26.0701,VALID,63,VALID,0.0257812,
2013-02-03, 00:19:04,VALID,1009.38,VALID,0,VALID,102.216,VALID,0.112112,VALID,26.0486,VALID,63,VALID,0.507813,
2013-02-03, 00:20:04,VALID,1009.38,VALID,0,VALID,102.33,VALID,0.112112,VALID,26.0486,VALID,64,VALID,0.244141,
2013-02-03, 00:21:04,VALID,1009.36,VALID,0,VALID,102.414,VALID,0.112112,VALID,26.0681,VALID,63,VALID,0.132422,
2013-02-03, 00:22:04,VALID,1009.32,VALID,0,VALID,102.498,VALID,0.112112,VALID,26.0896,VALID,63,VALID,0.301953,
2013-02-03, 00:23:04,VALID,1009.33,VALID,0,VALID,102.452,VALID,0.112112,VALID,26.0681,VALID,64,VALID,0.409766,
2013-02-03, 00:24:04,VALID,1009.31,VALID,0,VALID,102.353,VALID,0.112112,VALID,26.0486,VALID,63,VALID,0.605469,
2013-02-03, 00:25:04,VALID,1009.27,VALID,0,VALID,101.964,VALID,0.112112,VALID,26.0486,VALID,64,VALID,0.497656,
2013-02-03, 00:26:04,VALID,1009.23,VALID,0,VALID,101.903,VALID,0.112112,VALID,26.0701,VALID,62,VALID,0.525,
2013-02-03, 00:27:04,VALID,1009.23,VALID,0,VALID,102.017,VALID,0.112112,VALID,26.0896,VALID,63,VALID,0.573438,
2013-02-03, 00:28:04,VALID,1009.22,VALID,0,VALID,101.964,VALID,0.112112,VALID,26.1091,VALID,64,VALID,0.296484,
2013-02-03, 00:29:04,VALID,1009.21,VALID,0,VALID,101.979,VALID,0,VALID,26.0896,VALID,63,VALID,0.571875,
2013-02-03, 00:30:04,VALID,1009.18,VALID,0,VALID,101.926,VALID,0.112112,VALID,26.0896,VALID,63,VALID,0.474609,
2013-02-03, 00:31:04,VALID,1009.18,VALID,0,VALID,101.903,VALID,0.112112,VALID,26.1091,VALID,63,VALID,0.650781,
2013-02-03, 00:32:04,VALID,1009.16,VALID,0,VALID,101.575,VALID,0.112112,VALID,26.1091,VALID,63,VALID,0.388281,
2013-02-03, 00:33:04,VALID,1009.2,VALID,0,VALID,101.659,VALID,0,VALID,26.1091,VALID,63,VALID,0.451172,
2013-02-03, 00:34:04,VALID,1009.18,VALID,0,VALID,101.697,VALID,0.112112,VALID,26.0876,VALID,72,VALID,0.842969,
2013-02-03, 00:35:04,VALID,1009.16,VALID,0,VALID,101.59,VALID,0.112112,VALID,26.1091,VALID,85,VALID,0.447656,
2013-02-03, 00:36:04,VALID,1009.19,VALID,0,VALID,101.392,VALID,0.112112,VALID,26.1091,VALID,60,VALID,0.555469,
2013-02-03, 00:37:04,VALID,1009.16,VALID,0,VALID,101.621,VALID,0,VALID,26.1091,VALID,48,VALID,0.409766,
2013-02-03, 00:38:04,VALID,1009.18,VALID,0,VALID,101.628,VALID,0.112112,VALID,26.1091,VALID,49,VALID,0.191406,
2013-02-03, 00:39:04,VALID,1009.18,VALID,0,VALID,101.545,VALID,0,VALID,26.0896,VALID,49,VALID,0.446094,
2013-02-03, 00:40:04,VALID,1009.21,VALID,0,VALID,101.537,VALID,0,VALID,26.0896,VALID,49,VALID,0.192969,
2013-02-03, 00:41:04,VALID,1009.22,VALID,0,VALID,101.59,VALID,0.112112,VALID,26.0701,VALID,48,VALID,0.378125,
2013-02-03, 00:42:04,VALID,1009.25,VALID,0,VALID,101.43,VALID,0.112112,VALID,26.0896,VALID,18,VALID,0.513672,
2013-02-03, 00:43:04,VALID,1009.22,VALID,0,VALID,101.606,VALID,0.112112,VALID,26.0701,VALID,18,VALID,0.3125,
2013-02-03, 00:44:04,VALID,1009.22,VALID,0,VALID,101.575,VALID,0.112112,VALID,26.0896,VALID,18,VALID,0.407031,
2013-02-03, 00:45:04,VALID,1009.23,VALID,0,VALID,101.636,VALID,0.112112,VALID,26.0701,VALID,18,VALID,0.0410156,
2013-02-03, 00:46:04,VALID,1009.21,VALID,0,VALID,101.728,VALID,0,VALID,26.0701,VALID,18,VALID,0,
2013-02-03, 00:47:04,VALID,1009.19,VALID,0,VALID,101.697,VALID,0,VALID,26.0916,VALID,4,VALID,0.046875,
2013-02-03, 00:48:04,VALID,1009.17,VALID,0,VALID,101.613,VALID,0,VALID,26.0916,VALID,263,VALID,0.285547,
2013-02-03, 00:49:04,VALID,1009.15,VALID,0,VALID,101.712,VALID,0,VALID,26.1326,VALID,263,VALID,0,
2013-02-03, 00:50:04,VALID,1009.13,VALID,0,VALID,101.636,VALID,0,VALID,26.1306,VALID,262,VALID,0.15,
2013-02-03, 00:51:04,VALID,1009.1,VALID,0,VALID,101.59,VALID,0,VALID,26.1306,VALID,263,VALID,0.551562,
2013-02-03, 00:52:04,VALID,1009.11,VALID,0,VALID,101.415,VALID,0,VALID,26.1111,VALID,263,VALID,0.167969,
2013-02-03, 00:53:04,VALID,1009.09,VALID,0,VALID,101.491,VALID,0,VALID,26.1111,VALID,266,VALID,0.414063,
2013-02-03, 00:54:04,VALID,1009.07,VALID,0,VALID,101.331,VALID,0,VALID,26.1306,VALID,297,VALID,0.689062,
2013-02-03, 00:55:04,VALID,1009.08,VALID,0,VALID,101.339,VALID,0,VALID,26.1111,VALID,300,VALID,0.342969,
2013-02-03, 00:56:04,VALID,1009.05,VALID,0,VALID,101.506,VALID,0,VALID,26.1111,VALID,300,VALID,0.10625,
2013-02-03, 00:57:04,VALID,1009.03,VALID,0,VALID,101.72,VALID,0,VALID,26.1111,VALID,300,VALID,0,
2013-02-03, 00:58:04,VALID,1009.04,VALID,0,VALID,101.712,VALID,0,VALID,26.1306,VALID,300,VALID,0,
2013-02-03, 00:59:04,VALID,1009.02,VALID,0,VALID,101.72,VALID,0,VALID,26.1306,VALID,300,VALID,0.528906,
2013-02-03, 01:00:04,VALID,1009.01,VALID,0,VALID,101.933,VALID,0,VALID,26.1091,VALID,300,VALID,0.196094,
2013-02-03, 01:01:04,VALID,1008.98,VALID,0,VALID,101.895,VALID,0,VALID,26.1306,VALID,300,VALID,0.219141,
2013-02-03, 01:02:04,VALID,1008.94,VALID,0,VALID,101.75,VALID,0,VALID,26.1306,VALID,300,VALID,0.820313,
2013-02-03, 01:03:04,VALID,1008.92,VALID,0,VALID,101.75,VALID,0,VALID,26.0896,VALID,316,VALID,0.575391,
2013-02-03, 01:04:04,VALID,1008.86,VALID,0,VALID,101.789,VALID,0,VALID,26.1111,VALID,316,VALID,0.423047,
2013-02-03, 01:05:04,VALID,1008.8,VALID,0,VALID,101.796,VALID,0,VALID,26.0916,VALID,317,VALID,0.758984,
2013-02-03, 01:06:04,VALID,1008.77,VALID,0,VALID,101.941,VALID,0,VALID,26.0916,VALID,317,VALID,0.282422,
2013-02-03, 01:07:04,VALID,1008.71,VALID,0,VALID,102.116,VALID,0,VALID,26.0916,VALID,328,VALID,0.658203,
2013-02-03, 01:08:04,VALID,1008.68,VALID,0,VALID,102.299,VALID,0,VALID,26.0721,VALID,328,VALID,0.616797,
2013-02-03, 01:09:04,VALID,1008.64,VALID,0,VALID,102.36,VALID,0,VALID,26.0331,VALID,328,VALID,0.532812,
2013-02-03, 01:10:04,VALID,1008.61,VALID,0,VALID,102.498,VALID,0,VALID,26.0136,VALID,328,VALID,0.316797,
2013-02-03, 01:11:04,VALID,1008.59,VALID,0,VALID,102.536,VALID,0,VALID,25.9941,VALID,328,VALID,0.376563,
2013-02-03, 01:12:04,VALID,1008.54,VALID,0,VALID,102.666,VALID,0,VALID,25.9551,VALID,328,VALID,0,
2013-02-03, 01:13:04,VALID,1008.52,VALID,0,VALID,102.894,VALID,0,VALID,25.9571,VALID,328,VALID,0.277344,
2013-02-03, 01:14:04,VALID,1008.49,VALID,0,VALID,103.001,VALID,0,VALID,25.9356,VALID,328,VALID,0.264844,
2013-02-03, 01:15:04,VALID,1008.49,VALID,0,VALID,103.131,VALID,0,VALID,25.9356,VALID,328,VALID,0,
2013-02-03, 01:16:04,VALID,1008.47,VALID,0,VALID,103.245,VALID,0,VALID,25.9356,VALID,328,VALID,0.00351562,
2013-02-03, 01:17:04,VALID,1008.46,VALID,0,VALID,103.306,VALID,0.112112,VALID,25.9336,VALID,328,VALID,0.337891,
2013-02-03, 01:18:04,VALID,1008.47,VALID,0,VALID,103.176,VALID,0.112112,VALID,25.9141,VALID,327,VALID,0.775391,
2013-02-03, 01:19:04,VALID,1008.43,VALID,0,VALID,103.245,VALID,0.112112,VALID,25.9161,VALID,327,VALID,0.507813,
2013-02-03, 01:20:04,VALID,1008.41,VALID,0,VALID,103.321,VALID,0,VALID,25.8946,VALID,327,VALID,0.482422,
2013-02-03, 01:21:04,VALID,1008.4,VALID,0,VALID,103.466,VALID,0.112112,VALID,25.8342,VALID,327,VALID,0.606641,
2013-02-03, 01:22:04,VALID,1008.44,VALID,0,VALID,103.603,VALID,0.112112,VALID,25.8361,VALID,328,VALID,0.472266,
2013-02-03, 01:23:04,VALID,1008.43,VALID,0,VALID,103.771,VALID,0.112112,VALID,25.8147,VALID,328,VALID,0.265234,
2013-02-03, 01:24:04,VALID,1008.4,VALID,0,VALID,103.931,VALID,0,VALID,25.8361,VALID,328,VALID,0.486328,
2013-02-03, 01:25:04,VALID,1008.41,VALID,0,VALID,104,VALID,0.112112,VALID,25.8361,VALID,327,VALID,0.182422,
2013-02-03, 01:26:04,VALID,1008.38,VALID,0,VALID,104,VALID,0.112112,VALID,25.8166,VALID,342,VALID,0.305859,
2013-02-03, 01:27:04,VALID,1008.38,VALID,0,VALID,104,VALID,0.112112,VALID,25.8166,VALID,342,VALID,0.220313,
2013-02-03, 01:28:04,VALID,1008.37,VALID,0,VALID,104,VALID,0,VALID,25.8166,VALID,341,VALID,0.505469,
2013-02-03, 01:29:04,VALID,1008.36,VALID,0,VALID,104,VALID,0.112112,VALID,25.8361,VALID,330,VALID,0.592969,
2013-02-03, 01:30:04,VALID,1008.35,VALID,0,VALID,104,VALID,0.112112,VALID,25.8361,VALID,331,VALID,0.270703,
2013-02-03, 01:31:04,VALID,1008.32,VALID,0,VALID,104,VALID,0,VALID,25.8361,VALID,331,VALID,0.497266,
2013-02-03, 01:32:04,VALID,1008.32,VALID,0,VALID,104,VALID,0.112112,VALID,25.8361,VALID,342,VALID,0.366406,
2013-02-03, 01:33:04,VALID,1008.33,VALID,0,VALID,104,VALID,0.112112,VALID,25.8166,VALID,342,VALID,0.276563,
2013-02-03, 01:34:04,VALID,1008.32,VALID,0,VALID,104,VALID,0.112112,VALID,25.8186,VALID,342,VALID,0.213281,
2013-02-03, 01:35:04,VALID,1008.37,VALID,0,VALID,104,VALID,0.112112,VALID,25.7971,VALID,342,VALID,0,
2013-02-03, 01:36:04,VALID,1008.38,VALID,0,VALID,104,VALID,0.112112,VALID,25.8166,VALID,342,VALID,0.271094,
2013-02-03, 01:37:04,VALID,1008.39,VALID,0,VALID,104,VALID,0,VALID,25.7971,VALID,342,VALID,0.338672,
2013-02-03, 01:38:04,VALID,1008.42,VALID,0,VALID,104,VALID,0,VALID,25.7971,VALID,342,VALID,0.114844,
2013-02-03, 01:39:04,VALID,1008.42,VALID,0,VALID,104,VALID,0.112112,VALID,25.8361,VALID,342,VALID,0,
2013-02-03, 01:40:04,VALID,1008.42,VALID,0,VALID,104,VALID,0.112112,VALID,25.8556,VALID,342,VALID,0.325,
2013-02-03, 01:41:04,VALID,1008.41,VALID,0,VALID,103.916,VALID,0,VALID,25.8556,VALID,342,VALID,0.254687,
2013-02-03, 01:42:04,VALID,1008.44,VALID,0,VALID,103.87,VALID,0,VALID,25.8556,VALID,342,VALID,0.367188,
2013-02-03, 01:43:04,VALID,1008.44,VALID,0,VALID,103.863,VALID,0,VALID,25.8751,VALID,342,VALID,0.096875,
2013-02-03, 01:44:04,VALID,1008.45,VALID,0,VALID,103.863,VALID,0.112112,VALID,25.8751,VALID,342,VALID,0,
2013-02-03, 01:45:04,VALID,1008.49,VALID,0,VALID,103.695,VALID,0.112112,VALID,25.8946,VALID,342,VALID,0,
2013-02-03, 01:46:04,VALID,1008.47,VALID,0,VALID,103.664,VALID,0.112112,VALID,25.8946,VALID,342,VALID,0,
2013-02-03, 01:47:04,VALID,1008.47,VALID,0,VALID,103.542,VALID,0.112112,VALID,25.8946,VALID,342,VALID,0,
2013-02-03, 01:48:04,VALID,1008.48,VALID,0,VALID,103.481,VALID,0.112112,VALID,25.8946,VALID,295,VALID,0.558984,
2013-02-03, 01:49:04,VALID,1008.49,VALID,0,VALID,103.413,VALID,0,VALID,25.8946,VALID,267,VALID,0.510156,
2013-02-03, 01:50:04,VALID,1008.46,VALID,0,VALID,103.39,VALID,0.112112,VALID,25.9141,VALID,267,VALID,0.347656,
2013-02-03, 01:51:04,VALID,1008.47,VALID,0,VALID,103.489,VALID,0,VALID,25.9336,VALID,267,VALID,0.0550781,
2013-02-03, 01:52:04,VALID,1008.46,VALID,0,VALID,103.443,VALID,0.112112,VALID,25.9336,VALID,267,VALID,0.180469,
2013-02-03, 01:53:04,VALID,1008.48,VALID,0,VALID,103.39,VALID,0.112112,VALID,25.9531,VALID,267,VALID,0.160156,
2013-02-03, 01:54:04,VALID,1008.48,VALID,0,VALID,103.52,VALID,0.112112,VALID,25.9726,VALID,267,VALID,0.00585938,
2013-02-03, 01:55:04,VALID,1008.48,VALID,0,VALID,103.367,VALID,0.112112,VALID,25.9511,VALID,267,VALID,0.293359,
2013-02-03, 01:56:04,VALID,1008.49,VALID,0,VALID,103.215,VALID,0,VALID,25.9726,VALID,327,VALID,0.690234,
2013-02-03, 01:57:04,VALID,1008.46,VALID,0,VALID,103.154,VALID,0,VALID,25.9531,VALID,327,VALID,0.411719,
2013-02-03, 01:58:04,VALID,1008.46,VALID,0,VALID,103.207,VALID,0.112112,VALID,25.9726,VALID,327,VALID,0.296484,
2013-02-03, 01:59:04,VALID,1008.42,VALID,0,VALID,103.131,VALID,0,VALID,25.9531,VALID,318,VALID,0.532812,
2013-02-03, 02:00:04,VALID,1008.42,VALID,0,VALID,103.192,VALID,0,VALID,25.9531,VALID,318,VALID,0.429297,
2013-02-03, 02:01:04,VALID,1008.39,VALID,0,VALID,103.154,VALID,0.112112,VALID,25.9531,VALID,318,VALID,0.214453,
2013-02-03, 02:02:04,VALID,1008.37,VALID,0,VALID,103.154,VALID,0.112112,VALID,25.9531,VALID,318,VALID,0,
2013-02-03, 02:03:04,VALID,1008.34,VALID,0,VALID,103.26,VALID,0.112112,VALID,25.9531,VALID,318,VALID,0,
2013-02-03, 02:04:04,VALID,1008.32,VALID,0,VALID,103.146,VALID,0.112112,VALID,25.9336,VALID,265,VALID,0.516406,
2013-02-03, 02:05:04,VALID,1008.34,VALID,0,VALID,103.108,VALID,0.112112,VALID,25.9531,VALID,258,VALID,0.420312,
2013-02-03, 02:06:04,VALID,1008.3,VALID,0,VALID,103.032,VALID,0,VALID,25.9531,VALID,262,VALID,1.00195,
2013-02-03, 02:07:04,VALID,1008.32,VALID,0,VALID,103.009,VALID,0.112112,VALID,25.9531,VALID,295,VALID,0.0363281,
2013-02-03, 02:08:04,VALID,1008.26,VALID,0,VALID,103.077,VALID,0.112112,VALID,25.9531,VALID,295,VALID,0,
2013-02-03, 02:09:04,VALID,1008.23,VALID,0,VALID,103.154,VALID,0,VALID,25.9726,VALID,295,VALID,0,
2013-02-03, 02:10:04,VALID,1008.22,VALID,0,VALID,103.085,VALID,0,VALID,25.9746,VALID,295,VALID,0,
2013-02-03, 02:11:04,VALID,1008.17,VALID,0,VALID,102.925,VALID,0.112112,VALID,25.9726,VALID,294,VALID,0.0851562,
2013-02-03, 02:12:04,VALID,1008.15,VALID,0,VALID,102.902,VALID,0,VALID,25.9531,VALID,328,VALID,0.319922,
2013-02-03, 02:13:04,VALID,1008.12,VALID,0,VALID,102.978,VALID,0.112112,VALID,25.9336,VALID,330,VALID,0.636328,
2013-02-03, 02:14:04,VALID,1008.12,VALID,0,VALID,103.054,VALID,0,VALID,25.9141,VALID,330,VALID,0.620703,
2013-02-03, 02:15:04,VALID,1008.08,VALID,0,VALID,103.039,VALID,0,VALID,25.9141,VALID,316,VALID,0.563281,
2013-02-03, 02:16:05,VALID,1008.08,VALID,0,VALID,103.146,VALID,0.112112,VALID,25.9141,VALID,331,VALID,0.7375,
2013-02-03, 02:17:05,VALID,1008.08,VALID,0,VALID,103.222,VALID,0.112112,VALID,25.8751,VALID,339,VALID,0.774609,
2013-02-03, 02:18:05,VALID,1008.09,VALID,0,VALID,103.413,VALID,0,VALID,25.8556,VALID,352,VALID,0.360156,
2013-02-03, 02:19:05,VALID,1008.07,VALID,0,VALID,103.558,VALID,0.112112,VALID,25.8556,VALID,352,VALID,0.544141,
2013-02-03, 02:20:05,VALID,1008.08,VALID,0,VALID,103.542,VALID,0.112112,VALID,25.8166,VALID,356,VALID,0.744141,
2013-02-03, 02:21:05,VALID,1008.1,VALID,0,VALID,103.657,VALID,0.112112,VALID,25.7971,VALID,356,VALID,0.450391,
2013-02-03, 02:22:05,VALID,1008.11,VALID,0,VALID,103.695,VALID,0,VALID,25.7776,VALID,358,VALID,0.601563,
2013-02-03, 02:23:05,VALID,1008.12,VALID,0,VALID,103.71,VALID,0,VALID,25.7776,VALID,31,VALID,0.800781,
2013-02-03, 02:24:05,VALID,1008.14,VALID,0,VALID,103.817,VALID,0,VALID,25.7581,VALID,33,VALID,0.248047,
2013-02-03, 02:25:05,VALID,1008.18,VALID,0,VALID,104,VALID,0.112112,VALID,25.7581,VALID,33,VALID,0.101953,
2013-02-03, 02:26:05,VALID,1008.22,VALID,0,VALID,104,VALID,0.112112,VALID,25.7776,VALID,33,VALID,0.0472656,
2013-02-03, 02:27:05,VALID,1008.28,VALID,0,VALID,104,VALID,0,VALID,25.7581,VALID,33,VALID,0.223828,
2013-02-03, 02:28:05,VALID,1008.3,VALID,0,VALID,104,VALID,0.112112,VALID,25.7776,VALID,34,VALID,0.215625,
2013-02-03, 02:29:05,VALID,1008.33,VALID,0,VALID,104,VALID,0,VALID,25.7971,VALID,33,VALID,0.243359,
2013-02-03, 02:30:05,VALID,1008.38,VALID,0,VALID,103.916,VALID,0.112112,VALID,25.8166,VALID,5,VALID,0.438672,
2013-02-03, 02:31:05,VALID,1008.37,VALID,0,VALID,103.931,VALID,0.112112,VALID,25.8556,VALID,5,VALID,0,
2013-02-03, 02:32:05,VALID,1008.38,VALID,0,VALID,103.916,VALID,0.112112,VALID,25.8946,VALID,5,VALID,0,
2013-02-03, 02:33:05,VALID,1008.37,VALID,0,VALID,103.748,VALID,0.112112,VALID,25.9141,VALID,5,VALID,0.166016,
2013-02-03, 02:34:05,VALID,1008.34,VALID,0,VALID,103.512,VALID,0.112112,VALID,25.9141,VALID,5,VALID,0.158984,
2013-02-03, 02:35:05,VALID,1008.32,VALID,0,VALID,103.192,VALID,0,VALID,25.9141,VALID,342,VALID,0.579687,
2013-02-03, 02:36:05,VALID,1008.26,VALID,0,VALID,103.047,VALID,0.112112,VALID,25.9531,VALID,336,VALID,0.269531,
2013-02-03, 02:37:05,VALID,1008.23,VALID,0,VALID,103.062,VALID,0,VALID,25.9726,VALID,336,VALID,0.45,
2013-02-03, 02:38:05,VALID,1008.22,VALID,0,VALID,103.039,VALID,0.112112,VALID,25.9921,VALID,336,VALID,0.103125,
2013-02-03, 02:39:05,VALID,1008.2,VALID,0,VALID,102.803,VALID,0.112112,VALID,25.9726,VALID,328,VALID,0.285937,
2013-02-03, 02:40:05,VALID,1008.21,VALID,0,VALID,102.711,VALID,0.112112,VALID,25.9921,VALID,328,VALID,0,
2013-02-03, 02:41:05,VALID,1008.2,VALID,0,VALID,102.688,VALID,0.112112,VALID,25.9901,VALID,328,VALID,0.2125,
2013-02-03, 02:42:05,VALID,1008.18,VALID,0,VALID,102.605,VALID,0.112112,VALID,26.0116,VALID,328,VALID,0.198437,
2013-02-03, 02:43:05,VALID,1008.18,VALID,0,VALID,102.368,VALID,0.112112,VALID,26.0311,VALID,219,VALID,0.427344,
2013-02-03, 02:44:05,VALID,1008.18,VALID,0,VALID,102.315,VALID,0,VALID,26.0506,VALID,219,VALID,0.517969,
2013-02-03, 02:45:05,VALID,1008.17,VALID,0,VALID,102.307,VALID,0.112112,VALID,26.0506,VALID,219,VALID,0.438672,
2013-02-03, 02:46:05,VALID,1008.17,VALID,0,VALID,102.261,VALID,0.112112,VALID,26.0506,VALID,217,VALID,0.329688,
2013-02-03, 02:47:05,VALID,1008.11,VALID,0,VALID,102.437,VALID,0.112112,VALID,26.0701,VALID,218,VALID,0.398047,
2013-02-03, 02:48:05,VALID,1008.12,VALID,0,VALID,102.353,VALID,0.112112,VALID,26.0701,VALID,219,VALID,0.365625,
2013-02-03, 02:49:05,VALID,1008.12,VALID,0,VALID,102.429,VALID,0.112112,VALID,26.0486,VALID,214,VALID,0.609766,
2013-02-03, 02:50:05,VALID,1008.05,VALID,0,VALID,102.376,VALID,0,VALID,26.0506,VALID,214,VALID,0.415234,
2013-02-03, 02:51:05,VALID,1008.04,VALID,0,VALID,102.429,VALID,0.112112,VALID,26.0506,VALID,214,VALID,0.534375,
2013-02-03, 02:52:05,VALID,1008.01,VALID,0,VALID,102.589,VALID,0.112112,VALID,26.0506,VALID,214,VALID,0.366406,
2013-02-03, 02:53:05,VALID,1008,VALID,0,VALID,102.688,VALID,0,VALID,26.0506,VALID,214,VALID,0.270703,
2013-02-03, 02:54:05,VALID,1008,VALID,0,VALID,102.826,VALID,0,VALID,26.0701,VALID,214,VALID,0.244531,
2013-02-03, 02:55:05,VALID,1007.99,VALID,0,VALID,102.849,VALID,0,VALID,26.0506,VALID,214,VALID,0,
2013-02-03, 02:56:05,VALID,1008,VALID,0,VALID,102.925,VALID,0.112112,VALID,26.0701,VALID,214,VALID,0.00195313,
2013-02-03, 02:57:05,VALID,1008.02,VALID,0,VALID,102.826,VALID,0.112112,VALID,26.0506,VALID,214,VALID,0.265234,
2013-02-03, 02:58:05,VALID,1008.06,VALID,0,VALID,102.78,VALID,0,VALID,26.0506,VALID,214,VALID,0.263281,
2013-02-03, 02:59:05,VALID,1008.08,VALID,0,VALID,102.833,VALID,0.112112,VALID,26.0701,VALID,214,VALID,0.232422,
2013-02-03, 03:00:05,VALID,1008.13,VALID,0,VALID,102.81,VALID,0.112112,VALID,26.0896,VALID,214,VALID,0.215234,
2013-02-03, 03:01:05,VALID,1008.16,VALID,0,VALID,102.727,VALID,0.112112,VALID,26.0896,VALID,214,VALID,0.290234,
2013-02-03, 03:02:05,VALID,1008.18,VALID,0,VALID,102.353,VALID,0.112112,VALID,26.1091,VALID,214,VALID,0.450391,
2013-02-03, 03:03:05,VALID,1008.14,VALID,0,VALID,102.284,VALID,0.112112,VALID,26.1481,VALID,214,VALID,0.316016,
2013-02-03, 03:04:05,VALID,1008.1,VALID,0,VALID,102.162,VALID,0.112112,VALID,26.1676,VALID,214,VALID,0.366406,
2013-02-03, 03:05:05,VALID,1008.04,VALID,0,VALID,102.086,VALID,0.112112,VALID,26.1871,VALID,214,VALID,0.231641,
2013-02-03, 03:06:05,VALID,1008,VALID,0,VALID,102.086,VALID,0.112112,VALID,26.1871,VALID,214,VALID,0.240234,
2013-02-03, 03:07:05,VALID,1007.95,VALID,0,VALID,101.796,VALID,0.112112,VALID,26.1676,VALID,214,VALID,0.196875,
2013-02-03, 03:08:05,VALID,1007.91,VALID,0,VALID,101.552,VALID,0.112112,VALID,26.1871,VALID,214,VALID,0.0929687,
2013-02-03, 03:09:05,VALID,1007.9,VALID,0,VALID,101.384,VALID,0.112112,VALID,26.1871,VALID,214,VALID,0.243359,
2013-02-03, 03:10:05,VALID,1007.91,VALID,0,VALID,101.056,VALID,0.112112,VALID,26.1871,VALID,214,VALID,0.160547,
2013-02-03, 03:11:05,VALID,1007.92,VALID,0,VALID,101.072,VALID,0.112112,VALID,26.1656,VALID,214,VALID,0.377344,
2013-02-03, 03:12:05,VALID,1007.96,VALID,0,VALID,101.278,VALID,0,VALID,26.1871,VALID,214,VALID,0.0105469,
2013-02-03, 03:13:05,VALID,1007.99,VALID,0,VALID,101.178,VALID,0,VALID,26.1676,VALID,215,VALID,0.0972656,
2013-02-03, 03:14:05,VALID,1007.97,VALID,0,VALID,100.965,VALID,0.112112,VALID,26.1871,VALID,215,VALID,0,
2013-02-03, 03:15:05,VALID,1008.01,VALID,0,VALID,101.049,VALID,0.112112,VALID,26.1871,VALID,215,VALID,0,
2013-02-03, 03:16:05,VALID,1008,VALID,0,VALID,101.537,VALID,0.112112,VALID,26.1676,VALID,215,VALID,0,
2013-02-03, 03:17:05,VALID,1007.96,VALID,0,VALID,101.491,VALID,0,VALID,26.2086,VALID,215,VALID,0,
2013-02-03, 03:18:05,VALID,1007.93,VALID,0,VALID,101.301,VALID,0,VALID,26.1676,VALID,215,VALID,0,
2013-02-03, 03:19:05,VALID,1007.9,VALID,0,VALID,101.24,VALID,0,VALID,26.1676,VALID,215,VALID,0,
2013-02-03, 03:20:05,VALID,1007.86,VALID,0,VALID,101.11,VALID,0,VALID,26.1481,VALID,215,VALID,0,
2013-02-03, 03:21:05,VALID,1007.82,VALID,0,VALID,101.247,VALID,0.112112,VALID,26.1481,VALID,215,VALID,0.601563,
2013-02-03, 03:22:05,VALID,1007.81,VALID,0,VALID,101.423,VALID,0,VALID,26.1091,VALID,215,VALID,0.165234,
2013-02-03, 03:23:05,VALID,1007.82,VALID,0,VALID,101.712,VALID,0,VALID,26.1111,VALID,215,VALID,0.165234,
2013-02-03, 03:24:05,VALID,1007.78,VALID,0,VALID,101.941,VALID,0.112112,VALID,26.0701,VALID,215,VALID,0.123047,
2013-02-03, 03:25:05,VALID,1007.81,VALID,0,VALID,102.147,VALID,0,VALID,26.0506,VALID,215,VALID,0.167578,
2013-02-03, 03:26:05,VALID,1007.83,VALID,0,VALID,102.109,VALID,0.112112,VALID,26.0506,VALID,215,VALID,0.156641,
2013-02-03, 03:27:05,VALID,1007.85,VALID,0,VALID,102.01,VALID,0,VALID,26.0311,VALID,215,VALID,0.131641,
2013-02-03, 03:28:05,VALID,1007.86,VALID,0,VALID,101.979,VALID,0,VALID,26.0506,VALID,215,VALID,0.321875,
2013-02-03, 03:29:05,VALID,1007.89,VALID,0,VALID,102.368,VALID,0,VALID,26.0701,VALID,215,VALID,0.177344,
2013-02-03, 03:30:05,VALID,1007.85,VALID,0,VALID,102.399,VALID,0.112112,VALID,26.0701,VALID,215,VALID,0.241797,
2013-02-03, 03:31:05,VALID,1007.84,VALID,0,VALID,102.421,VALID,0,VALID,26.0506,VALID,215,VALID,0,
2013-02-03, 03:32:05,VALID,1007.85,VALID,0,VALID,102.414,VALID,0,VALID,26.0311,VALID,215,VALID,0,
2013-02-03, 03:33:05,VALID,1007.82,VALID,0,VALID,102.757,VALID,0,VALID,26.0506,VALID,214,VALID,0,
2013-02-03, 03:34:05,VALID,1007.83,VALID,0,VALID,102.78,VALID,0,VALID,26.0311,VALID,216,VALID,0.0195313,
2013-02-03, 03:35:05,VALID,1007.84,VALID,0,VALID,102.704,VALID,0,VALID,26.0116,VALID,215,VALID,0.101953,
2013-02-03, 03:36:05,VALID,1007.88,VALID,0,VALID,102.597,VALID,0,VALID,26.0506,VALID,215,VALID,0.425391,
2013-02-03, 03:37:05,VALID,1007.86,VALID,0,VALID,102.147,VALID,0.112112,VALID,26.0506,VALID,214,VALID,0.1875,
2013-02-03, 03:38:05,VALID,1007.92,VALID,0,VALID,101.781,VALID,0,VALID,26.1111,VALID,215,VALID,0.398047,
2013-02-03, 03:39:05,VALID,1007.9,VALID,0,VALID,101.377,VALID,0,VALID,26.0896,VALID,214,VALID,0.325781,